Location: Krakow
(50.0830°N, 19.9170°E)
Time: 11:22:53
(UTC+01:00)

Transit 2A - Pass Details

Date: 14 February 2023
Orbit: 591 x 964 km, 66.7° (Epoch: 21 March)

Event Time Altitude Azimuth Distance (km) Brightness Sun altitude
Rises 23:11:04 0° 320° (NW) 3,529 10.0 -51.7°
Enters shadow 23:12:22 - 318° (NW) 3,061 9.6 -51.8°
Reaches altitude 10° 23:13:37 10° 314° (NW) 2,625 - -51.9°
Maximum altitude 23:19:28 47° 244° (WSW) 1,253 - -52.1°
Drops below altitude 10° 23:25:30 10° 173° (S) 2,694 - -52.3°
Sets 23:28:09 0° 167° (SSE) 3,631 - -52.4°
